Station Historical Data
Daily Summary for September 24, 2017 Units:  Metric    English   Both
« Previous Day
Next Day »
Daily Weekly Monthly Yearly Custom
  High: Low: Average:
Temperature: 31.9 °C 16.9 °C 23.9 °C
Dew Point: 22.1 °C 14.9 °C 18.2 °C
Humidity: 89% 52% 72%
Wind Speed: 8km/h 0km/h 1.1km/h
Wind Gust: 14.5km/h - -
Wind- - WSW
Pressure: 1021.2 hPa 1017.8 hPa -
Precipitation: 0 mm    
Historical Graphs
 
 
Tabular Data for September 24, 2017
Time Temperature Dew Point Pressure Wind Wind Speed Wind Gust Humidity Rainfall Rate (Hourly)
00:04 19.4 °C 16.3 °C 1018.8 hPa Calm     82% 0 mm
00:09 19.3 °C 16.2 °C 1018.8 hPa Calm     82% 0 mm
00:14 19.2 °C 16.1 °C 1018.8 hPa Calm     82% 0 mm
00:19 19.2 °C 16.2 °C 1018.8 hPa Calm     83% 0 mm
00:24 19.1 °C 16.1 °C 1018.8 hPa Calm     83% 0 mm
00:29 18.9 °C 16 °C 1018.8 hPa Calm     83% 0 mm
00:34 18.9 °C 16.2 °C 1019.2 hPa Calm     84% 0 mm
00:39 18.9 °C 15.9 °C 1019.2 hPa Calm     83% 0 mm
00:44 18.8 °C 16.1 °C 1019.2 hPa Calm     84% 0 mm
00:49 18.8 °C 16.1 °C 1019.2 hPa Calm     84% 0 mm
00:54 18.9 °C 16.1 °C 1019.2 hPa Calm     84% 0 mm
00:59 18.8 °C 16.1 °C 1019.2 hPa Calm     84% 0 mm
01:05 18.8 °C 16 °C 1019.2 hPa Calm     84% 0 mm
01:10 18.8 °C 16 °C 1019.2 hPa Calm     84% 0 mm
01:15 18.7 °C 16.2 °C 1019.2 hPa Calm     85% 0 mm
01:20 18.7 °C 15.9 °C 1019.2 hPa Calm     84% 0 mm
01:25 18.7 °C 15.9 °C 1019.2 hPa Calm     84% 0 mm
01:30 18.6 °C 15.8 °C 1019.2 hPa Calm     84% 0 mm
01:35 18.6 °C 16 °C 1019.2 hPa Calm     85% 0 mm
01:40 18.5 °C 15.9 °C 1019.2 hPa Calm     85% 0 mm
01:45 18.4 °C 15.9 °C 1019.2 hPa Calm     85% 0 mm
01:50 18.3 °C 15.8 °C 1019.2 hPa Calm     85% 0 mm
01:55 18.3 °C 15.9 °C 1019.2 hPa Calm     86% 0 mm
02:00 18.3 °C 15.9 °C 1019.2 hPa Calm     86% 0 mm
02:05 18.3 °C 15.9 °C 1019.2 hPa Calm     86% 0 mm
02:10 18.3 °C 15.9 °C 1019.2 hPa Calm     86% 0 mm
02:15 18.3 °C 15.9 °C 1019.2 hPa Calm     86% 0 mm
02:20 18.2 °C 15.8 °C 1019.2 hPa Calm     86% 0 mm
02:25 18.2 °C 15.8 °C 1019.2 hPa Calm     86% 0 mm
02:30 18.2 °C 15.8 °C 1019.5 hPa Calm     86% 0 mm
02:35 18.2 °C 15.8 °C 1019.5 hPa Calm     86% 0 mm
02:40 18.2 °C 15.8 °C 1019.5 hPa Calm     86% 0 mm
02:45 18.1 °C 15.7 °C 1019.5 hPa Calm     86% 0 mm
02:50 17.9 °C 15.6 °C 1019.5 hPa Calm     86% 0 mm
02:55 17.8 °C 15.7 °C 1019.5 hPa Calm     87% 0 mm
03:00 17.8 °C 15.6 °C 1019.2 hPa Calm     87% 0 mm
03:05 17.8 °C 15.6 °C 1019.5 hPa Calm     87% 0 mm
03:10 17.7 °C 15.5 °C 1019.5 hPa Calm     87% 0 mm
03:15 17.7 °C 15.5 °C 1019.5 hPa Calm     87% 0 mm
03:20 17.7 °C 15.5 °C 1019.2 hPa Calm     87% 0 mm
03:25 17.6 °C 15.4 °C 1019.5 hPa Calm     87% 0 mm
03:30 17.6 °C 15.6 °C 1019.5 hPa Calm     88% 0 mm
03:35 17.6 °C 15.6 °C 1019.5 hPa Calm     88% 0 mm
03:40 17.5 °C 15.5 °C 1019.5 hPa Calm     88% 0 mm
03:45 17.6 °C 15.6 °C 1019.5 hPa Calm     88% 0 mm
03:50 17.5 °C 15.5 °C 1019.5 hPa Calm     88% 0 mm
03:55 17.4 °C 15.4 °C 1019.5 hPa Calm     88% 0 mm
04:00 17.4 °C 15.4 °C 1019.5 hPa Calm     88% 0 mm
04:05 17.3 °C 15.3 °C 1019.5 hPa Calm     88% 0 mm
04:10 17.3 °C 15.3 °C 1019.9 hPa Calm     88% 0 mm
04:15 17.3 °C 15.3 °C 1019.9 hPa Calm     88% 0 mm
04:20 17.3 °C 15.5 °C 1019.9 hPa Calm     89% 0 mm
04:25 17.3 °C 15.5 °C 1019.9 hPa Calm     89% 0 mm
04:30 17.3 °C 15.4 °C 1019.9 hPa Calm     89% 0 mm
04:35 17.3 °C 15.4 °C 1019.9 hPa Calm     89% 0 mm
04:45 17.4 °C 15.4 °C 1019.9 hPa Calm     88% 0 mm
04:50 17.3 °C 15.3 °C 1019.9 hPa Calm     88% 0 mm
04:55 17.4 °C 15.4 °C 1019.9 hPa Calm     88% 0 mm
05:00 17.4 °C 15.4 °C 1020.2 hPa Calm     88% 0 mm
05:05 17.3 °C 15.3 °C 1020.2 hPa Calm     88% 0 mm
05:10 17.3 °C 15.3 °C 1020.2 hPa Calm     88% 0 mm
05:15 17.3 °C 15.3 °C 1019.9 hPa Calm     88% 0 mm
05:20 17.3 °C 15.3 °C 1020.2 hPa Calm     88% 0 mm
05:25 17.2 °C 15.2 °C 1020.2 hPa Calm     88% 0 mm
05:30 17.2 °C 15.2 °C 1020.2 hPa Calm     88% 0 mm
05:34 17.1 °C 15.1 °C 1020.2 hPa Calm     88% 0 mm
05:40 17.1 °C 15.1 °C 1020.2 hPa Calm     88% 0 mm
05:45 16.9 °C 14.9 °C 1020.2 hPa Calm     88% 0 mm
05:50 16.9 °C 14.9 °C 1020.2 hPa Calm     88% 0 mm
05:54 16.9 °C 14.9 °C 1020.2 hPa Calm     88% 0 mm
06:00 16.9 °C 14.9 °C 1020.2 hPa Calm     88% 0 mm
06:05 16.9 °C 14.9 °C 1020.2 hPa Calm     88% 0 mm
06:10 16.9 °C 14.9 °C 1020.2 hPa Calm     88% 0 mm
06:15 17 °C 15 °C 1020.2 hPa Calm     88% 0 mm
06:20 17 °C 15 °C 1020.5 hPa Calm     88% 0 mm
06:25 17 °C 15 °C 1020.5 hPa Calm     88% 0 mm
06:30 17 °C 15 °C 1020.5 hPa Calm     88% 0 mm
06:35 17 °C 15 °C 1020.5 hPa Calm     88% 0 mm
06:39 17 °C 15 °C 1020.5 hPa Calm     88% 0 mm
06:45 17 °C 15 °C 1020.5 hPa Calm     88% 0 mm
06:50 16.9 °C 14.9 °C 1020.5 hPa Calm     88% 0 mm
06:55 17 °C 15 °C 1020.5 hPa Calm     88% 0 mm
07:00 17 °C 15 °C 1020.5 hPa Calm     88% 0 mm
07:10 16.9 °C 14.9 °C 1020.5 hPa Calm     88% 0 mm
07:14 16.9 °C 14.9 °C 1020.9 hPa Calm     88% 0 mm
07:20 16.9 °C 14.9 °C 1020.9 hPa Calm     88% 0 mm
07:24 16.9 °C 14.9 °C 1020.9 hPa Calm     88% 0 mm
07:30 16.9 °C 14.9 °C 1020.9 hPa Calm     88% 0 mm
07:34 16.9 °C 14.9 °C 1020.9 hPa Calm     88% 0 mm
07:39 17.1 °C 15.1 °C 1020.9 hPa Calm     88% 0 mm
07:44 17.2 °C 15.2 °C 1020.9 hPa Calm     88% 0 mm
07:55 17.5 °C 15.3 °C 1020.9 hPa Calm     87% 0 mm
08:00 17.7 °C 15.5 °C 1020.9 hPa Calm     87% 0 mm
08:04 17.9 °C 15.5 °C 1020.5 hPa Calm     86% 0 mm
08:09 18.2 °C 15.8 °C 1020.9 hPa Calm     86% 0 mm
08:15 18.4 °C 15.7 °C 1020.9 hPa Calm     84% 0 mm
08:20 18.7 °C 15.8 °C 1020.5 hPa Calm     83% 0 mm
08:25 19.1 °C 15.9 °C 1020.9 hPa Calm     82% 0 mm
08:30 19.5 °C 16.2 °C 1020.9 hPa Calm     81% 0 mm
08:35 20 °C 16.4 °C 1020.9 hPa Calm     80% 0 mm
08:39 20.4 °C 16.4 °C 1020.9 hPa Calm     78% 0 mm
08:44 20.7 °C 16.3 °C 1020.9 hPa Calm     76% 0 mm
08:49 20.9 °C 16.3 °C 1020.9 hPa Calm     75% 0 mm
08:55 21.1 °C 16.3 °C 1020.9 hPa Calm     74% 0 mm
08:59 21.4 °C 16.6 °C 1020.9 hPa Calm     74% 0 mm
09:04 21.7 °C 16.7 °C 1020.9 hPa Calm     73% 0 mm
09:10 22.1 °C 17.1 °C 1020.9 hPa Calm     73% 0 mm
09:15 22.3 °C 17.1 °C 1020.9 hPa SW 3.2 km/h 4.8 km/h 72% 0 mm
09:20 22.6 °C 16.8 °C 1021.2 hPa SW 1.6 km/h 6.4 km/h 70% 0 mm
09:25 22.7 °C 16.7 °C 1021.2 hPa SW 3.2 km/h 6.4 km/h 69% 0 mm
09:30 22.9 °C 17.1 °C 1021.2 hPa SW 1.6 km/h 6.4 km/h 70% 0 mm
09:35 23.3 °C 17.1 °C 1020.9 hPa SW 1.6 km/h 6.4 km/h 68% 0 mm
09:39 23.6 °C 16.8 °C 1020.9 hPa SSW 1.6 km/h 6.4 km/h 66% 0 mm
09:44 23.8 °C 17.3 °C 1020.9 hPa Calm   4.8 km/h 67% 0 mm
09:49 24.2 °C 17.4 °C 1020.9 hPa WSW 6.4 km/h 6.4 km/h 66% 0 mm
09:55 24.3 °C 17.3 °C 1020.9 hPa WSW 1.6 km/h 8 km/h 65% 0 mm
10:00 24.6 °C 17.6 °C 1020.9 hPa West 1.6 km/h 6.4 km/h 65% 0 mm
10:04 24.8 °C 17.8 °C 1021.2 hPa West 3.2 km/h 6.4 km/h 65% 0 mm
10:09 24.9 °C 17.9 °C 1021.2 hPa WSW 3.2 km/h 6.4 km/h 65% 0 mm
10:15 25.2 °C 17.6 °C 1021.2 hPa WSW 3.2 km/h 9.7 km/h 63% 0 mm
10:20 25.2 °C 17.7 °C 1021.2 hPa SW 3.2 km/h 9.7 km/h 63% 0 mm
10:25 25.6 °C 17.7 °C 1021.2 hPa WSW 1.6 km/h 4.8 km/h 62% 0 mm
10:30 26 °C 18.4 °C 1020.9 hPa WSW 1.6 km/h 6.4 km/h 63% 0 mm
10:35 26.4 °C 18.5 °C 1020.9 hPa WSW 1.6 km/h 6.4 km/h 62% 0 mm
10:39 26.7 °C 18.5 °C 1020.9 hPa WSW 1.6 km/h 8 km/h 61% 0 mm
10:45 26.7 °C 18.3 °C 1020.9 hPa WSW 3.2 km/h 8 km/h 60% 0 mm
10:49 26.7 °C 18.3 °C 1020.9 hPa WSW 6.4 km/h 6.4 km/h 60% 0 mm
10:55 26.7 °C 18.6 °C 1020.9 hPa Calm   6.4 km/h 61% 0 mm
10:59 27 °C 18.8 °C 1020.9 hPa West 4.8 km/h 6.4 km/h 61% 0 mm
11:04 27 °C 18.6 °C 1020.9 hPa WSW 3.2 km/h 8 km/h 60% 0 mm
11:09 27.3 °C 18.3 °C 1020.9 hPa WSW 3.2 km/h 8 km/h 58% 0 mm
11:15 27.4 °C 19.3 °C 1020.9 hPa WSW 3.2 km/h 8 km/h 61% 0 mm
11:20 27.4 °C 18.4 °C 1020.9 hPa SW 3.2 km/h 8 km/h 58% 0 mm
11:25 27.6 °C 19.1 °C 1020.9 hPa Calm   6.4 km/h 60% 0 mm
11:30 27.6 °C 18.9 °C 1020.9 hPa WSW 6.4 km/h 9.7 km/h 59% 0 mm
11:34 27.7 °C 20.2 °C 1020.9 hPa WSW 3.2 km/h 9.7 km/h 64% 0 mm
11:39 27.8 °C 19.6 °C 1020.9 hPa SW 4.8 km/h 9.7 km/h 61% 0 mm
11:44 27.9 °C 19.2 °C 1020.9 hPa SW 3.2 km/h 8 km/h 59% 0 mm
11:50 27.8 °C 19.1 °C 1020.9 hPa WSW 3.2 km/h 9.7 km/h 59% 0 mm
11:54 28.1 °C 19.3 °C 1020.9 hPa Calm   9.7 km/h 59% 0 mm
11:59 28.3 °C 19.5 °C 1020.5 hPa West 3.2 km/h 8 km/h 59% 0 mm
12:04 28.1 °C 19 °C 1020.5 hPa Calm   6.4 km/h 58% 0 mm
12:09 28.6 °C 19.8 °C 1020.5 hPa WSW 3.2 km/h 6.4 km/h 59% 0 mm
12:14 28.7 °C 19.6 °C 1020.5 hPa West 1.6 km/h 8 km/h 58% 0 mm
12:19 28.7 °C 19.9 °C 1020.5 hPa West 1.6 km/h 4.8 km/h 59% 0 mm
12:25 28.7 °C 19.3 °C 1020.5 hPa Calm   6.4 km/h 57% 0 mm
12:29 28.6 °C 19.8 °C 1020.5 hPa WSW 3.2 km/h 8 km/h 59% 0 mm
12:35 28.8 °C 20.3 °C 1020.5 hPa WSW 3.2 km/h 4.8 km/h 60% 0 mm
12:39 28.9 °C 19.5 °C 1020.5 hPa West 1.6 km/h 6.4 km/h 57% 0 mm
12:44 29 °C 19.3 °C 1020.2 hPa WNW 3.2 km/h 6.4 km/h 56% 0 mm
12:50 29.2 °C 19.8 °C 1020.2 hPa West 3.2 km/h 6.4 km/h 57% 0 mm
12:54 29.6 °C 20.4 °C 1020.2 hPa West 3.2 km/h 8 km/h 58% 0 mm
12:59 29.6 °C 19.9 °C 1020.2 hPa Calm   6.4 km/h 56% 0 mm
13:04 29.7 °C 20.8 °C 1020.2 hPa WSW 1.6 km/h 8 km/h 59% 0 mm
13:09 29.9 °C 20.5 °C 1019.9 hPa WSW 1.6 km/h 8 km/h 57% 0 mm
13:14 29.9 °C 19.9 °C 1019.9 hPa SW 1.6 km/h 6.4 km/h 55% 0 mm
13:20 30.2 °C 19.9 °C 1019.9 hPa WSW 1.6 km/h 8 km/h 54% 0 mm
13:24 30.6 °C 20.2 °C 1019.9 hPa Calm   6.4 km/h 54% 0 mm
13:29 30.2 °C 20.8 °C 1019.9 hPa Calm   6.4 km/h 57% 0 mm
13:35 30.7 °C 20.3 °C 1019.9 hPa WSW 4.8 km/h 8 km/h 54% 0 mm
13:39 30.5 °C 20.2 °C 1019.5 hPa WSW 3.2 km/h 8 km/h 54% 0 mm
13:44 30.3 °C 19.9 °C 1019.5 hPa West 3.2 km/h 6.4 km/h 54% 0 mm
13:50 30.4 °C 19.7 °C 1019.5 hPa WNW 3.2 km/h 9.7 km/h 53% 0 mm
13:54 30.7 °C 20.7 °C 1019.5 hPa WNW 3.2 km/h 8 km/h 55% 0 mm
13:59 30.4 °C 19.8 °C 1019.5 hPa WSW 3.2 km/h 8 km/h 53% 0 mm
14:04 30.5 °C 19.6 °C 1019.2 hPa Calm   4.8 km/h 52% 0 mm
14:09 30.3 °C 19.7 °C 1019.2 hPa WSW 1.6 km/h 6.4 km/h 53% 0 mm
14:14 30.8 °C 20.2 °C 1019.2 hPa NW 3.2 km/h 9.7 km/h 53% 0 mm
14:19 31.1 °C 21.2 °C 1019.2 hPa South 3.2 km/h 6.4 km/h 56% 0 mm
14:24 31.3 °C 20.8 °C 1019.2 hPa SW 3.2 km/h 6.4 km/h 54% 0 mm
14:29 31 °C 20 °C 1018.8 hPa WSW 3.2 km/h 6.4 km/h 52% 0 mm
14:34 30.9 °C 20.6 °C 1018.8 hPa WSW 3.2 km/h 9.7 km/h 54% 0 mm
14:39 31.1 °C 21.2 °C 1018.8 hPa WSW 4.8 km/h 12.9 km/h 56% 0 mm
14:44 31.4 °C 21.3 °C 1018.8 hPa WSW 4.8 km/h 12.9 km/h 55% 0 mm
14:50 31.2 °C 20.2 °C 1018.8 hPa Calm   8 km/h 52% 0 mm
14:54 31.3 °C 20.9 °C 1018.8 hPa WNW 3.2 km/h 8 km/h 54% 0 mm
15:00 31.7 °C 20.9 °C 1018.8 hPa West 1.6 km/h 8 km/h 53% 0 mm
15:04 31.2 °C 20.8 °C 1018.8 hPa West 3.2 km/h 8 km/h 54% 0 mm
15:09 31.3 °C 21.2 °C 1018.8 hPa SSW 4.8 km/h 9.7 km/h 55% 0 mm
15:14 31.3 °C 20.8 °C 1018.8 hPa SW 4.8 km/h 8 km/h 54% 0 mm
15:19 31.3 °C 22.1 °C 1018.8 hPa WNW 6.4 km/h 14.5 km/h 58% 0 mm
15:24 31.6 °C 20.9 °C 1018.5 hPa WSW 4.8 km/h 6.4 km/h 53% 0 mm
15:29 31.7 °C 20.9 °C 1018.5 hPa WSW 1.6 km/h 6.4 km/h 53% 0 mm
15:34 31.7 °C 20.9 °C 1018.5 hPa WSW 3.2 km/h 6.4 km/h 53% 0 mm
15:39 31.7 °C 20.9 °C 1018.5 hPa WSW 3.2 km/h 8 km/h 53% 0 mm
15:44 31.4 °C 20.7 °C 1018.5 hPa WSW 1.6 km/h 8 km/h 53% 0 mm
15:49 31.7 °C 20.9 °C 1018.5 hPa SW 1.6 km/h 9.7 km/h 53% 0 mm
15:54 31.8 °C 21.1 °C 1018.5 hPa SW 3.2 km/h 9.7 km/h 53% 0 mm
15:59 31.7 °C 20.9 °C 1018.5 hPa SSW 3.2 km/h 6.4 km/h 53% 0 mm
16:05 31.9 °C 21.8 °C 1018.5 hPa WNW 3.2 km/h 9.7 km/h 55% 0 mm
16:09 31.8 °C 21.1 °C 1018.5 hPa SW 6.4 km/h 9.7 km/h 53% 0 mm
16:14 31.7 °C 21.5 °C 1018.2 hPa WNW 1.6 km/h 9.7 km/h 55% 0 mm
16:19 31.7 °C 21.2 °C 1018.2 hPa WSW 8 km/h 8 km/h 54% 0 mm
16:24 31.7 °C 20.9 °C 1018.2 hPa NW 4.8 km/h 11.3 km/h 53% 0 mm
16:29 31.7 °C 21.2 °C 1018.2 hPa WNW 4.8 km/h 8 km/h 54% 0 mm
16:34 31.8 °C 20.7 °C 1018.2 hPa WNW 4.8 km/h 8 km/h 52% 0 mm
16:39 31.6 °C 20.9 °C 1018.2 hPa West 4.8 km/h 11.3 km/h 53% 0 mm
16:44 31.6 °C 21.4 °C 1018.2 hPa West 4.8 km/h 11.3 km/h 55% 0 mm
16:49 31.6 °C 21.1 °C 1018.2 hPa WNW 4.8 km/h 8 km/h 54% 0 mm
16:54 31.5 °C 21.4 °C 1017.8 hPa WNW 6.4 km/h 8 km/h 55% 0 mm
16:59 31.5 °C 21.4 °C 1018.2 hPa West 3.2 km/h 8 km/h 55% 0 mm
17:04 31.6 °C 21.4 °C 1018.2 hPa West 3.2 km/h 8 km/h 55% 0 mm
17:09 31.5 °C 20.8 °C 1017.8 hPa WSW 3.2 km/h 8 km/h 53% 0 mm
17:14 31.5 °C 21.1 °C 1017.8 hPa SW 4.8 km/h 8 km/h 54% 0 mm
17:19 31.5 °C 21.1 °C 1017.8 hPa SW 3.2 km/h 8 km/h 54% 0 mm
17:24 31.6 °C 21.2 °C 1017.8 hPa SW 1.6 km/h 4.8 km/h 54% 0 mm
17:30 31.6 °C 21.2 °C 1017.8 hPa Calm   6.4 km/h 54% 0 mm
17:34 31.2 °C 21.1 °C 1018.2 hPa Calm   9.7 km/h 55% 0 mm
17:39 31.1 °C 20.9 °C 1018.2 hPa SW 1.6 km/h 9.7 km/h 55% 0 mm
17:44 30.8 °C 21.1 °C 1018.2 hPa Calm   6.4 km/h 56% 0 mm
17:49 30.6 °C 20.8 °C 1018.2 hPa SSW 3.2 km/h 8 km/h 56% 0 mm
17:54 30.3 °C 20.9 °C 1018.2 hPa SW 1.6 km/h 8 km/h 57% 0 mm
17:59 30.1 °C 21.2 °C 1018.2 hPa SW 1.6 km/h 6.4 km/h 59% 0 mm
18:04 29.9 °C 21.1 °C 1018.2 hPa SW 3.2 km/h 8 km/h 59% 0 mm
18:09 29.8 °C 20.9 °C 1017.8 hPa SSW 3.2 km/h 8 km/h 59% 0 mm
18:14 29.7 °C 20.6 °C 1017.8 hPa SW 3.2 km/h 6.4 km/h 58% 0 mm
18:19 29.6 °C 20.7 °C 1017.8 hPa SW 1.6 km/h 6.4 km/h 59% 0 mm
18:24 29.4 °C 20.3 °C 1017.8 hPa Calm     58% 0 mm
18:29 29.3 °C 20.5 °C 1017.8 hPa Calm     59% 0 mm
18:34 29.2 °C 20.6 °C 1017.8 hPa Calm     60% 0 mm
18:39 29 °C 20.7 °C 1017.8 hPa Calm     61% 0 mm
18:44 28.7 °C 20.4 °C 1017.8 hPa Calm     61% 0 mm
18:49 28.6 °C 20.3 °C 1017.8 hPa Calm     61% 0 mm
18:54 28.4 °C 20.4 °C 1017.8 hPa Calm     62% 0 mm
18:59 28.2 °C 20.4 °C 1018.2 hPa Calm     63% 0 mm
19:04 28 °C 20.3 °C 1017.8 hPa Calm     63% 0 mm
19:09 27.7 °C 20.3 °C 1017.8 hPa Calm     64% 0 mm
19:14 27.3 °C 20.1 °C 1017.8 hPa Calm     65% 0 mm
19:19 27.2 °C 20.3 °C 1018.2 hPa Calm     66% 0 mm
19:24 26.9 °C 20 °C 1018.2 hPa Calm     66% 0 mm
19:29 26.7 °C 20.1 °C 1018.2 hPa Calm     67% 0 mm
19:34 26.6 °C 19.9 °C 1018.2 hPa Calm     67% 0 mm
19:39 26.4 °C 20 °C 1018.2 hPa Calm     68% 0 mm
19:44 26.2 °C 20.1 °C 1018.2 hPa Calm     69% 0 mm
19:49 26 °C 20.1 °C 1018.2 hPa Calm     70% 0 mm
19:54 25.8 °C 19.9 °C 1018.2 hPa Calm     70% 0 mm
19:59 25.7 °C 20 °C 1018.2 hPa Calm     71% 0 mm
20:04 25.6 °C 19.9 °C 1018.2 hPa Calm     71% 0 mm
20:09 25.3 °C 19.9 °C 1018.2 hPa Calm     72% 0 mm
20:14 25.2 °C 19.8 °C 1018.2 hPa Calm     72% 0 mm
20:19 25 °C 19.8 °C 1018.2 hPa Calm     73% 0 mm
20:24 24.8 °C 19.7 °C 1018.2 hPa Calm     73% 0 mm
20:29 24.7 °C 19.6 °C 1018.2 hPa Calm     73% 0 mm
20:35 24.7 °C 19.5 °C 1018.2 hPa Calm     73% 0 mm
20:44 24.4 °C 19.3 °C 1018.2 hPa Calm     73% 0 mm
20:49 24.3 °C 19.3 °C 1018.2 hPa Calm     74% 0 mm
20:54 24.2 °C 19.3 °C 1018.2 hPa Calm     74% 0 mm
20:59 24.1 °C 19.2 °C 1018.2 hPa Calm     74% 0 mm
21:04 24 °C 19.3 °C 1018.2 hPa Calm     75% 0 mm
21:09 24 °C 19.3 °C 1018.2 hPa Calm     75% 0 mm
21:14 23.8 °C 19.1 °C 1018.5 hPa Calm     75% 0 mm
21:19 23.7 °C 19 °C 1018.2 hPa Calm     75% 0 mm
21:24 23.6 °C 19.1 °C 1018.2 hPa Calm     76% 0 mm
21:29 23.6 °C 19.1 °C 1018.2 hPa Calm     76% 0 mm
21:34 23.4 °C 18.9 °C 1018.2 hPa Calm     76% 0 mm
21:39 23.3 °C 19 °C 1018.2 hPa Calm     77% 0 mm
21:44 23.2 °C 18.9 °C 1018.5 hPa Calm     77% 0 mm
21:49 23 °C 18.9 °C 1018.2 hPa Calm     78% 0 mm
21:54 22.8 °C 18.8 °C 1018.5 hPa Calm     78% 0 mm
21:59 22.8 °C 18.9 °C 1018.5 hPa Calm     79% 0 mm
22:04 22.7 °C 19.1 °C 1018.5 hPa Calm     80% 0 mm
22:09 22.8 °C 19.2 °C 1018.5 hPa Calm     80% 0 mm
22:14 22.8 °C 19.3 °C 1018.5 hPa Calm     81% 0 mm
22:19 22.7 °C 19.2 °C 1018.5 hPa Calm     81% 0 mm
22:24 22.6 °C 19.1 °C 1018.5 hPa Calm     81% 0 mm
22:29 22.4 °C 19.2 °C 1018.5 hPa Calm     82% 0 mm
22:34 22.4 °C 19.3 °C 1018.5 hPa Calm     83% 0 mm
22:39 22.3 °C 19.3 °C 1018.5 hPa Calm     83% 0 mm
22:44 22.3 °C 19.2 °C 1018.5 hPa Calm     83% 0 mm
22:49 22.2 °C 19.2 °C 1018.5 hPa Calm     83% 0 mm
22:54 22.2 °C 19.3 °C 1018.5 hPa Calm     84% 0 mm
22:59 22.2 °C 19.5 °C 1018.5 hPa Calm     85% 0 mm
23:04 22.3 °C 19.6 °C 1018.5 hPa Calm     85% 0 mm
23:09 22.3 °C 19.6 °C 1018.5 hPa Calm     85% 0 mm
23:24 22.3 °C 19.6 °C 1018.5 hPa Calm     85% 0 mm
23:29 22.2 °C 19.6 °C 1018.5 hPa Calm     85% 0 mm
23:34 22.1 °C 19.4 °C 1018.2 hPa Calm     85% 0 mm
23:39 22.1 °C 19.4 °C 1018.2 hPa Calm     85% 0 mm
23:44 21.9 °C 19.3 °C 1018.2 hPa Calm     85% 0 mm
23:49 21.8 °C 19.4 °C 1018.5 hPa Calm     86% 0 mm
23:54 21.8 °C 19.3 °C 1018.2 hPa Calm     86% 0 mm
23:59 21.7 °C 19.2 °C 1018.2 hPa Calm     86% 0 mm
Buffalo, New York, USA
Compliments of Weather Underground - 2.5 mb